• MPC Preparation (Info)

  • MPEC 2024-C172 : 2024 CN5

    The following Minor Planet Electronic Circular may be linked-to from your own Web pages, but must not otherwise be redistributed electronically.

    A form allowing access to any MPEC is at the bottom of this page.


    Read MPEC 2024-C171 Read MPEC 2024-C173


    M.P.E.C. 2024-C172                            Issued 2024 February 14, 22:26 UT
    
         The Minor Planet Electronic Circulars contain information on unusual
             minor planets, routine data on comets and natural satellites,
             and occasional editorial announcements.  They are published
        on behalf of Division F of the International Astronomical Union by the
              Minor Planet Center, Smithsonian Astrophysical Observatory,
                              Cambridge, MA 02138, U.S.A.
    			  
                 Prepared using the Tamkin Foundation Computer Network
    
                                  MPC@CFA.HARVARD.EDU
                URL https://www.minorplanetcenter.net/    ISSN 1523-6714
    
                                    2024 CN5                                 
    
    
    Observations:
         K24C05N* C2024 02 13.46610609 19 46.666+05 19 01.92         21.48wXEC172F52
         K24C05N  C2024 02 13.47846409 19 47.896+05 19 04.78         21.33wXEC172F52
         K24C05N  C2024 02 13.49082109 19 49.124+05 19 07.42         21.76wXEC172F52
         K24C05N  C2024 02 14.12017309 21 11.06 +05 22 35.3                WEC172X09
         K24C05N  C2024 02 14.13412009 21 12.56 +05 22 38.8                WEC172X09
         K24C05N  C2024 02 14.44051309 21 49.788+05 23 00.19         21.21GVEC172F52
         K24C05N  C2024 02 14.44133209 21 49.874+05 23 00.44         21.29GVEC172F52
         K24C05N KC2024 02 14.91022709 22 51.20 +05 24 36.7          20.9 GVEC172L01
         K24C05N KC2024 02 14.91444009 22 51.70 +05 24 38.1          21.2 GVEC172L01
         K24C05N pC2024 02 14.91759909 22 52.05 +05 24 39.1          21.5 GVEC172L01
    
    Observer details:
    F52 Pan-STARRS 2, Haleakala.  Observers J. Herman, T. Lowe, P. Minguez, A.
        Schultz, I. Smith.  Measurers K. Chambers, T. de Boer, J. Fairlamb, H.
        Gao, M. Huber, C.-C. Lin, E. Magnier, Y. Ramanjooloo, R. Wainscoat, R.
        Weryk.  1.8-m Ritchey-Chretien + CCD.
    L01 Visnjan Observatory, Tican.  Observer K. Korlevic.  1.0-m f/2.9 reflector
        + CCD.
    X09 Deep Random Survey, Rio Hurtado.  Observers A. Schnabel, D. Ruhela.
        Measurer S. Deen.  0.43-m reflector + CMOS.
    
    Orbital elements:
    2024 CN5                                                 Earth MOID = 0.1202 AU
    Epoch 2023 Sept. 13.0 TT = JDT 2460200.5                MPC                     
    M 279.67201              (2000.0)            P               Q                  
    n   0.48381930     Peri.  343.13532     -0.91039017     -0.41371471             
    a   1.6069928      Node   172.41945     +0.38423067     -0.85026324             
    e   0.3084290      Incl.    2.37492     +0.15348138     -0.32541138             
    P   2.04           H   25.06          G   0.15           U   9                  
    Residuals in seconds of arc
    240213 F52  0.1-  0.1-    240214 X09  1.0-  0.9-    240214 L01  0.2+  0.0
    240213 F52  0.1+  0.0     240214 F52  0.0   0.0     240214 L01  0.2+  0.1+
    240213 F52  0.0   0.1-    240214 F52  0.0   0.1+
    240214 X09  1.8-  0.7-    240214 L01  0.4-  0.3-
    
    Ephemeris:
    2024 CN5                 a,e,i = 1.61, 0.31, 2                   q = 1.1113
    Date    TT    R. A. (2000) Decl.     Delta      r    Elong.  Phase     V
    2024 01 15    08 36 43.1 +06 31 52   0.1989  1.1729   160.4    16.3    22.8
    ...
    2024 01 30    08 55 02.1 +05 09 34   0.1561  1.1376   167.1    11.2    22.0
    ...
    2024 02 07    09 07 32.6 +05 03 04   0.1406  1.1245   169.0     9.6    21.7
    ...
    2024 02 13    09 18 50.1 +05 17 34   0.1322  1.1175   169.7     9.1    21.5
    2024 02 14    09 20 54.3 +05 21 27   0.1310  1.1166   169.7     9.1    21.5
    2024 02 15    09 23 01.9 +05 25 44   0.1300  1.1157   169.8     9.1    21.5
    ...
    2024 02 21    09 36 57.4 +05 58 04   0.1252  1.1122   169.6     9.3    21.4
    ...
    2024 02 29    09 58 14.5 +06 52 12   0.1231  1.1115   168.5    10.2    21.4
    ...
    2024 03 15    10 42 03.5 +08 21 15   0.1328  1.1229   164.3    13.9    21.7
    
    A. U. Tomatic                (C) Copyright 2024 MPC           M.P.E.C. 2024-C172
    


    Read MPEC 2024-C171 Read MPEC 2024-C173


    MPEC number:

    Enter an MPEC number in one of the following forms:

    • 1997-B01 (the full form)
    • J97B01 (the packed version of the full form)
    • B01 (the abbreviated form)